Location: Kerb�bon
(47.7970°N, 3.3487°W)
Time: 09:22:44
(UTC+00:00)

Cosmos 1544 - Pass Details

Date: 12 May 2021
Orbit: 471 x 487 km, 82.5° (Epoch: 20 June)

Event Time Altitude Azimuth Distance (km) Brightness Sun altitude
Rises 22:39:29 0° 345° (NNW) 2,539 8.2 -20.8°
Reaches altitude 10° 22:41:38 10° 339° (NNW) 1,657 7.0 -20.9°
Maximum altitude 22:45:06 46° 266° (W) 656 3.7 -21.2°
Enters shadow 22:45:27 44° 246° (WSW) 673 3.7 -21.2°
